Content
SEND FEEDBACK

Daily
Averages
Monthly
Summary
Brazil

TERESINA, PIAUI


Home > South America > Brazil > Piaui
Elevation: 328 feet     Latitude: 05 03S     Longitude: 042 48W

WEATHER
 
SELECT A DAY
Number of Records: 166,648;   Date Range: 6/30/96 - 10/19/14
 
SHARE

PRINT THIS DATA

[ ← Previous Day ]
WEATHER ALMANAC - MARCH 5, 2013
[ Next Day → ]
[ °C ]   °F
Weather ElementAverageHighLow
Temperature86.8 °F97 °F (3:00 pm)78.8 °F (5:00 am)
Dewpoint76 °F80.6 °F (8:00 pm)71 °F (3:00 pm)
Humidity71.7 %94 % (5:00 am)33 % (3:00 pm)
Barometer29.80 in29.89 in (9:00 am)29.71 in (4:00 pm)
Wind Speed1.9 mph5.8 mph (2:00 pm)
Weather ElementAverage
Visibility7.3 mi
Wind DirectionESE (123.3 °)

Weather ElementTotal
Precipitation---
Cooling Degree Days22.9 (Base 65)
Growing Degree Days37.9 (Base 50)
Averaged from 28 records on March 5, 2013
WEATHER CONDITIONS BREAKOUT
WIND DIRECTION BREAKOUT
WEATHER BY HOUR - MARCH 5, 2013
[ °C ]   °F
Local TimeTemperatureDewpointHumidityBarometerVisibilityWind DirectionWind SpeedGust SpeedPrecipitationEventsConditions
1:00 AM80.6 °F75.2 °F84 %29.80 inNorth (360°)3.5 mphClear
2:00 AM80.6 °F77.0 °F89 %29.80 inCalmClear
3:00 AM80.0 °F76.0 °F83 %29.79 in12.0 miCalm
3:00 AM80.6 °F75.2 °F84 %29.80 inCalmClear
4:00 AM80.6 °F77.0 °F89 %29.80 inCalmClear
5:00 AM78.8 °F77.0 °F94 %29.83 inCalmClear
6:00 AM78.8 °F77.0 °F94 %29.83 inCalmClear
6:12 AM78.8 °F75.2 °F89 %29.83 in2.8 miCalmSmoke
7:00 AM80.6 °F77.0 °F89 %29.83 in5.0 miCalm
8:00 AM84.2 °F77.0 °F79 %29.86 inSW (230°)1.2 mphClear
9:00 AM86.0 °F76.0 °F67 %29.88 in12.0 miSouth (190°)3.5 mph
9:00 AM86.0 °F77.0 °F74 %29.89 inSouth (190°)3.5 mphClear
10:00 AM91.4 °F77.0 °F63 %29.86 in6.2 miSSE (160°)3.5 mphPartly Cloudy
11:00 AM93.2 °F75.2 °F56 %29.86 in6.2 miSouth (180°)4.6 mphScattered Clouds
12:00 PM95.0 °F73.4 °F49 %29.86 in6.2 miSE (140°)4.6 mphMostly Cloudy
1:00 PM95.0 °F73.4 °F49 %29.80 in6.2 miNNE (20°)2.3 mphMostly Cloudy
2:00 PM96.8 °F73.4 °F47 %29.77 in6.2 miSouth (180°)5.8 mphScattered Clouds
3:00 PM97.0 °F71.0 °F33 %29.75 in12.0 miSouth (180°)2.3 mphPartly Cloudy
3:00 PM96.8 °F71.6 °F44 %29.74 in6.2 miSouth (180°)2.3 mphScattered Clouds
4:00 PM96.8 °F71.6 °F44 %29.71 in6.2 miSE (130°)3.5 mphMostly Cloudy
5:00 PM91.4 °F78.8 °F66 %29.71 in6.2 miSE (130°)2.3 mphScattered Clouds
6:00 PM89.6 °F77.0 °F66 %29.74 in6.2 miCalmPartly Cloudy
7:00 PM87.8 °F77.0 °F70 %29.77 inCalmClear
8:00 PM86.0 °F80.6 °F84 %29.77 inCalmClear
9:00 PM85.0 °F78.0 °F75 %29.79 in12.0 miNorth1.2 mphClear
9:00 PM84.2 °F78.8 °F84 %29.80 inNorth (360°)1.2 mphClear
10:00 PM84.2 °F78.8 °F84 %29.80 in6.2 miNorth (350°)1.2 mphScattered Clouds
11:00 PM84.2 °F77.0 °F79 %29.83 in6.2 miNorth (350°)5.8 mphScattered Clouds
Hourly data recorded from SBTE, located miles away from Teresina, Piaui







STORIES FROM OUR PARTNERS